Temp
69 68 68 72 74 74 73 73 72 72 69 69 70 70 69 68 68 70 71 72 70 70 72 71 71 72 71 70 70 69 68 67 65 67 68 69 69 70 73 72 73 72 73
69 70 71 72 73 71 71 73 72 71 69 69 70 69 67 68 69 71 71 72 71 70 71 71 71 74 71 71 70 70 69 68 67 66 67 67 67 69 70 70 74 79 74
70 70 70 69 69 70 70 72 71 72 70 70 71 69 67 67 69 70 71 72 72 72 71 71 71 71 70 71 71 70 69 70 68 67 67 67 67 67 67 68 69 70 75
70 69 69 69 69 70 71 71 71 71 71 69 69 69 69 70 71 71 71 70 71 71 71 71 71 71 71 70 70 70 70 69 69 68 67 67 66 67 66 66 66 68 69
68 67 67 68 69 69 69 70 70 70 70 69 69 68 68 69 70 69 68 68 66 67 68 70 71 72 72 71 71 70 69 69 68 67 66 65 65 65 65 66 66 67 69
69 69 69 68 68 69 68 69 69 70 69 68 67 66 66 69 68 67 68 65 66 66 67 69 70 72 70 69 69 70 70 69 68 67 67 67 67 67 67 67 66 66 66
69 70 69 68 67 68 68 67 67 67 68 68 68 67 67 67 66 66 68 65 65 66 66 66 68 72 70 71 68 68 67 69 70 69 68 68 68 68 69 68 67 67 67
69 68 69 69 66 67 66 66 65 65 65 65 66 67 67 67 65 64 66 65 65 65 65 65 66 68 69 70 70 70 70 70 69 70 71 72 72 71 71 70 69 68 68
68 69 69 68 66 66 65 65 65 64 64 64 66 66 66 67 63 62 64 66 65 64 65 64 63 67 67 65 68 68 69 69 67 66 68 69 67 67 70 69 67 67 66
63 64 65 65 64 64 65 65 66 64 66 66 65 65 65 66 62 60 61 66 65 65 64 64 65 66 64 63 66 66 66 68 69 69 68 66 65 68 67 73 70 67 65
64 66 65 64 65 67 64 63 63 64 65 64 65 65 65 65 66 61 60 63 64 64 65 67 65 62 61 60 60 65 66 68 68 68 69 70 69 69 69 70 70 71 67
63 64 65 65 67 69 66 65 62 64 63 64 63 64 65 65 62 62 60 60 64 65 65 69 69 60 59 58 61 62 62 63 68 68 67 68 69 69 69 70 71 71 71
62 61 62 63 64 64 63 63 62 61 62 64 64 64 65 65 66 61 60 60 59 60 66 67 62 57 57 58 58 60 60 64 67 67 67 68 71 71 71 69 70 70 70
60 61 62 61 62 62 62 63 62 63 62 63 63 63 64 64 65 66 63 61 59 60 61 62 63 61 60 62 61 59 62 64 66 67 67 70 70 69 69 71 69 69 68
54 56 57 60 62 63 64 63 63 65 64 64 64 65 64 62 64 60 60 60 59 59 59 60 61 63 65 65 65 66 64 65 65 66 67 67 67 68 70 69 69 68 68
51 52 52 54 56 59 60 62 58 55 53 51 51 57 65 59 55 51 49 49 48 50 59 62 62 62 64 65 65 66 65 65 65 66 67 67 67 67 67 67 68 68 69
51 52 53 52 53 56 58 59 59 61 53 51 49 49 49 54 51 49 47 46 46 50 59 61 62 63 63 65 66 66 66 67 67 66 67 67 67 67 65 67 67 67 67
52 52 51 51 52 53 55 58 60 59 59 60 55 50 49 46 46 46 44 45 50 51 56 59 62 63 63 64 65 65 67 67 67 66 66 67 67 67 67 67 67 66 67
52 52 52 52 52 53 53 57 60 60 60 59 59 56 53 45 44 43 42 52 55 56 57 58 62 63 64 64 65 65 65 66 66 67 67 67 67 67 67 67 67 60 62
51 54 55 53 53 53 55 58 58 58 59 58 59 60 60 51 53 53 48 50 53 56 56 58 60 62 64 64 64 65 64 63 65 65 67 67 68 67 67 67 67 66 65
51 51 54 53 54 54 54 56 58 58 58 58 58 59 52 57 59 58 55 53 54 56 57 59 60 61 61 63 64 64 64 65 64 66 66 66 67 67 67 66 66 66 66
51 51 51 50 50 50 50 52 53 53 54 56 58 59 50 54 56 57 58 58 59 59 61 61 61 63 65 64 64 64 65 64 64 65 65 65 65 65 65 65 64 64 64
52 52 52 51 50 50 49 49 49 49 50 52 53 55 58 58 58 58 58 59 60 61 62 62 62 62 64 64 66 66 65 66 66 67 65 65 65 66 65 65 65 64 64
53 52 52 51 50 50 49 48 48 46 47 49 49 50 51 52 53 54 54 54 56 57 58 61 62 64 65 65 67 66 66 68 69 69 68 66 65 63 66 66 66 66 66
51 52 51 50 49 49 48 48 48 47 47 47 47 48 48 48 49 50 51 51 51 52 54 55 57 59 61 62 64 65 60 49 60 59 67 67 66 66 67 66 66 65 65
47 47 48 48 48 48 47 47 47 47 47 47 46 46 46 46 47 47 48 48 48 49 49 49 51 51 53 56 61 49 40 42 49 42 63 65 65 65 66 66 65 65 65
MSLP
1010.72 1011.00 1010.94 1009.87 1010.00 1009.86 1010.00 1009.59 1009.83 1009.38 1009.44 1009.94 1010.46 1010.56 1010.39 1010.48 1010.97 1011.19 1011.74 1011.82 1011.39 1011.53 1011.40 1011.74 1011.63 1011.88 1012.20 1012.18 1012.37 1012.61 1013.10 1013.64 1013.96 1013.44 1013.27 1012.85 1012.61 1012.31 1012.20 1012.18 1012.15 1012.20 1012.31
1011.22 1011.07 1010.44 1010.15 1009.81 1009.70 1009.21 1009.43 1009.36 1008.99 1008.96 1009.12 1009.52 1009.84 1009.98 1010.41 1010.50 1010.59 1010.44 1010.49 1010.89 1010.77 1010.57 1011.19 1010.88 1010.95 1011.30 1011.58 1011.71 1011.87 1012.08 1012.50 1013.11 1013.09 1012.85 1012.77 1012.72 1012.27 1012.12 1012.13 1012.09 1011.95 1012.18
1010.77 1010.89 1010.57 1010.23 1009.81 1009.50 1009.31 1009.15 1009.05 1008.44 1008.57 1009.04 1009.35 1009.38 1009.45 1009.73 1009.89 1010.01 1009.95 1009.75 1010.06 1010.08 1010.21 1010.34 1010.21 1010.30 1010.38 1010.70 1010.98 1011.16 1011.20 1011.49 1012.01 1012.48 1012.36 1012.24 1012.22 1012.20 1012.02 1012.12 1012.04 1011.95 1011.75
1010.21 1010.28 1010.28 1010.17 1009.85 1009.49 1009.18 1009.05 1008.56 1008.26 1008.35 1008.91 1009.08 1009.09 1009.14 1009.21 1009.13 1008.93 1009.09 1009.25 1009.37 1009.52 1009.72 1009.71 1009.44 1009.41 1009.49 1009.66 1010.01 1010.23 1010.44 1010.81 1011.22 1011.69 1011.90 1011.92 1011.96 1012.00 1011.91 1012.05 1012.10 1011.81 1011.79
1010.37 1010.11 1009.76 1009.55 1009.43 1009.26 1009.06 1008.77 1008.46 1008.32 1008.27 1008.20 1008.57 1009.05 1009.27 1009.03 1008.71 1008.74 1008.79 1009.00 1009.25 1009.30 1009.21 1009.08 1008.91 1008.83 1008.75 1008.76 1009.14 1009.31 1009.59 1010.02 1010.52 1010.96 1011.24 1011.48 1011.59 1011.68 1011.56 1011.33 1011.63 1011.49 1011.33
1009.76 1009.23 1009.15 1008.73 1008.77 1008.73 1008.61 1008.43 1008.24 1008.10 1008.12 1008.23 1008.47 1008.72 1008.90 1008.81 1008.58 1008.58 1008.68 1008.96 1009.12 1009.24 1009.00 1008.75 1008.57 1008.37 1008.05 1008.19 1008.29 1008.53 1008.78 1009.18 1009.54 1010.00 1010.33 1010.43 1010.56 1010.52 1010.61 1010.78 1011.18 1011.25 1011.42
1008.76 1008.67 1008.37 1008.31 1008.25 1007.90 1007.79 1007.91 1007.81 1007.71 1007.64 1007.90 1008.10 1008.22 1008.34 1008.30 1008.20 1008.33 1008.43 1008.60 1008.73 1008.75 1008.71 1008.62 1008.48 1008.21 1007.80 1007.90 1007.88 1007.98 1007.97 1008.38 1008.54 1008.88 1009.22 1009.34 1009.38 1009.48 1009.88 1010.18 1010.47 1010.40 1010.63
1008.80 1008.34 1008.05 1007.92 1007.64 1007.66 1007.55 1007.55 1007.55 1007.52 1007.57 1007.68 1007.64 1007.59 1007.65 1007.63 1007.53 1007.72 1008.02 1008.24 1008.41 1008.28 1008.21 1008.21 1008.23 1008.20 1007.95 1007.57 1007.28 1007.33 1007.36 1007.23 1007.72 1008.12 1008.21 1008.26 1008.24 1008.19 1008.90 1008.92 1009.32 1009.53 1010.12
1009.04 1008.59 1008.18 1008.00 1007.66 1007.36 1007.23 1007.11 1007.05 1007.12 1007.12 1007.12 1006.85 1006.85 1006.91 1006.90 1006.91 1006.95 1007.45 1007.66 1007.77 1007.63 1007.56 1007.61 1007.76 1007.73 1007.44 1007.70 1007.66 1007.40 1006.93 1006.50 1006.70 1006.95 1007.29 1007.39 1007.54 1007.75 1008.02 1008.75 1009.14 1009.60 1009.99
1009.16 1008.70 1008.21 1007.68 1007.23 1007.08 1006.98 1006.77 1006.52 1006.45 1006.36 1006.32 1006.32 1006.21 1006.03 1006.14 1006.08 1006.23 1006.57 1006.96 1007.05 1006.93 1006.81 1006.77 1006.82 1006.84 1006.84 1006.77 1007.31 1007.21 1007.00 1006.60 1006.06 1006.37 1006.80 1006.98 1007.09 1007.19 1007.36 1007.68 1008.15 1008.99 1009.35
1008.82 1008.47 1008.05 1007.47 1007.15 1006.62 1006.39 1006.21 1006.16 1005.95 1005.85 1005.70 1005.52 1005.31 1005.25 1005.22 1005.24 1005.33 1005.58 1006.14 1006.18 1006.18 1006.01 1005.75 1005.80 1005.90 1005.96 1006.03 1006.31 1006.63 1006.27 1005.92 1006.00 1005.95 1006.04 1006.46 1006.65 1006.72 1007.02 1007.13 1007.25 1007.50 1008.23
1008.88 1008.36 1007.78 1007.13 1006.59 1006.19 1006.03 1005.88 1005.67 1005.53 1005.42 1005.20 1005.01 1004.74 1004.51 1004.38 1004.30 1004.41 1004.65 1005.00 1005.12 1005.40 1005.14 1004.77 1004.70 1004.87 1005.03 1005.09 1005.29 1005.20 1005.47 1005.43 1005.73 1005.93 1005.97 1005.78 1005.93 1005.95 1006.19 1006.30 1006.37 1006.65 1006.74
1008.55 1008.00 1007.49 1006.91 1006.48 1006.05 1005.69 1005.39 1005.16 1004.98 1004.91 1004.71 1004.54 1004.28 1003.94 1003.65 1003.61 1003.65 1003.79 1003.99 1004.25 1004.73 1004.32 1003.87 1003.80 1004.05 1004.12 1004.47 1004.65 1004.64 1004.98 1005.21 1005.23 1005.53 1005.28 1005.22 1005.16 1005.01 1005.29 1005.45 1005.59 1005.89 1006.22
1008.62 1007.73 1007.04 1006.44 1005.84 1005.39 1005.02 1004.69 1004.39 1004.08 1003.89 1003.79 1003.66 1003.37 1003.07 1002.99 1002.96 1002.95 1003.17 1003.31 1003.40 1003.82 1003.68 1003.47 1003.36 1003.46 1003.63 1003.67 1003.87 1004.04 1004.27 1004.29 1004.33 1004.49 1004.26 1004.23 1004.28 1004.42 1004.81 1004.72 1005.05 1005.40 1005.90
1008.92 1008.03 1007.17 1006.28 1005.34 1004.62 1004.16 1003.70 1003.36 1002.98 1002.90 1002.81 1002.65 1002.52 1002.39 1002.15 1001.99 1002.12 1002.40 1002.72 1002.83 1002.71 1002.79 1003.02 1002.99 1002.95 1002.93 1002.91 1003.04 1003.16 1003.30 1003.50 1003.57 1003.55 1003.70 1003.71 1003.83 1003.92 1003.90 1003.99 1004.35 1004.77 1005.21
1008.67 1007.98 1007.33 1006.51 1005.42 1004.52 1003.59 1002.87 1002.43 1002.34 1002.14 1002.05 1001.82 1001.82 1001.53 1001.29 1001.20 1001.52 1001.73 1001.94 1002.08 1002.35 1002.71 1002.57 1002.47 1002.37 1002.25 1002.08 1002.15 1002.25 1002.28 1002.45 1002.52 1002.73 1002.93 1002.99 1003.17 1003.39 1003.32 1003.33 1003.40 1003.86 1004.22
1008.42 1007.64 1006.85 1006.16 1005.30 1004.29 1003.29 1002.51 1001.84 1001.38 1001.22 1001.14 1001.02 1000.96 1001.10 1001.00 1000.83 1001.05 1001.17 1001.61 1002.06 1002.36 1002.25 1002.03 1001.96 1001.72 1001.45 1001.25 1001.26 1001.24 1001.33 1001.28 1001.24 1001.81 1001.98 1002.22 1002.62 1002.81 1002.85 1002.58 1002.78 1003.01 1003.19
1007.75 1006.97 1006.22 1005.45 1004.90 1004.17 1003.31 1002.29 1001.48 1001.14 1000.69 1000.50 1000.13 1000.34 1000.11 1000.45 1000.60 1000.68 1001.16 1001.63 1001.89 1001.75 1001.34 1001.27 1000.99 1000.64 1000.50 1000.42 1000.39 1000.50 1000.30 1000.33 1000.66 1000.95 1001.28 1001.32 1001.47 1001.70 1001.78 1001.61 1002.09 1002.37 1002.23
1007.10 1006.20 1005.40 1004.70 1004.25 1003.74 1003.06 1002.00 1001.06 1000.70 1000.48 1000.16 999.78 999.62 999.47 1000.11 1000.18 1000.35 1000.72 1000.73 1000.60 1000.45 1000.30 1000.34 1000.03 999.75 999.64 999.61 999.45 999.45 999.48 999.56 999.65 999.92 1000.33 1000.44 1000.53 1000.48 1000.55 1000.65 1000.98 1001.16 1001.46
1006.95 1005.91 1004.87 1004.16 1003.65 1003.15 1002.38 1001.42 1000.97 1000.54 1000.21 999.97 999.62 999.26 999.25 1000.01 1000.16 1000.10 1000.13 999.97 999.75 999.45 999.36 999.34 999.12 999.07 998.93 998.64 998.49 998.51 998.76 998.76 998.96 999.05 999.17 999.29 999.41 999.61 999.82 999.88 999.98 1000.37 1000.55
1007.38 1006.40 1005.43 1004.52 1003.90 1003.40 1002.81 1001.86 1001.09 1000.60 1000.27 999.85 999.41 999.05 999.06 999.35 999.11 999.04 998.93 998.94 998.82 998.53 998.29 998.26 998.13 998.01 997.80 997.69 997.66 997.76 997.63 997.53 997.75 997.96 998.17 998.33 998.40 998.61 998.79 999.07 999.36 999.55 999.73
1007.82 1007.04 1006.34 1005.60 1004.88 1004.31 1003.86 1003.11 1002.37 1001.73 1001.03 1000.29 999.49 999.02 998.79 998.85 998.74 998.47 998.21 997.88 997.44 997.24 997.05 996.97 996.96 996.81 996.61 996.66 996.66 996.82 996.84 996.71 996.78 996.87 997.02 997.15 997.50 997.85 998.03 998.23 998.59 998.87 999.10
1008.37 1007.66 1007.10 1006.37 1005.70 1005.13 1004.52 1004.03 1003.40 1002.87 1002.10 1001.36 1000.77 999.98 999.30 998.92 998.61 998.25 997.89 997.45 997.01 996.67 996.35 996.18 995.95 995.93 995.86 995.73 995.51 995.57 995.69 995.66 995.63 995.75 995.97 996.36 996.58 996.85 997.22 997.33 997.57 997.94 998.30
1009.12 1008.45 1007.78 1007.13 1006.44 1005.80 1005.25 1004.75 1004.27 1003.76 1003.12 1002.33 1001.83 1001.28 1000.61 1000.06 999.58 999.08 998.58 998.14 997.63 997.14 996.71 996.09 995.51 995.11 994.93 994.70 994.65 994.77 994.63 994.47 994.54 994.72 994.89 995.13 995.48 995.82 996.16 996.32 996.39 996.75 997.05
1009.86 1009.18 1008.54 1007.86 1007.38 1006.79 1006.16 1005.55 1004.91 1004.39 1003.80 1003.18 1002.73 1002.15 1001.50 1000.88 1000.33 999.85 999.34 998.86 998.31 997.59 996.88 996.37 995.81 995.20 994.75 994.48 994.13 993.76 993.55 993.35 993.64 993.64 993.86 994.20 994.47 994.77 995.10 995.34 995.52 995.72 995.98
1010.62 1010.01 1009.47 1008.93 1008.34 1007.77 1007.15 1006.43 1005.89 1005.25 1004.81 1004.25 1003.78 1003.17 1002.35 1001.68 1000.97 1000.43 999.80 999.23 998.68 998.00 997.40 996.74 996.09 995.64 995.05 994.37 993.79 993.46 993.12 993.06 992.94 993.00 993.32 993.42 993.53 993.79 994.09 994.39 994.58 994.60 994.92
Wind_Speed
10 8 10 10 9 8 7 6 8 5 6 7 10 9 8 6 5 7 9 11 8 6 7 9 10 8 6 6 5 4 5 5 5 3 4 2 3 3 2 2 3 4 5
8 10 12 11 7 6 4 7 4 6 6 8 9 9 7 6 6 7 10 10 10 8 10 9 11 6 9 8 6 9 7 7 5 7 4 4 6 3 3 3 3 3 4
5 7 4 2 3 4 2 3 1 2 4 5 8 9 7 5 7 8 10 9 10 10 8 9 10 9 9 7 9 7 6 5 5 4 5 4 4 3 3 3 3 3 3
3 4 4 1 2 3 3 1 1 1 2 5 6 6 7 7 8 8 8 7 7 6 7 9 9 10 10 8 9 10 7 6 6 6 4 4 4 3 2 3 4 4 4
6 4 3 2 2 3 4 4 4 4 3 3 1 4 5 5 4 4 5 5 6 5 6 8 9 10 13 11 7 8 8 7 5 5 4 3 4 3 4 3 4 3 3
5 6 6 4 4 4 4 3 3 2 1 1 2 3 3 4 7 8 6 5 5 6 8 6 7 11 13 14 12 9 9 8 8 6 5 6 6 5 4 4 3 3 3
7 8 7 6 6 6 4 4 4 4 3 4 4 4 5 5 8 10 11 5 5 6 6 5 6 7 9 6 9 11 12 14 10 8 8 9 6 8 6 5 5 4 5
7 8 7 7 7 7 6 7 6 5 6 6 6 7 6 5 10 11 13 6 7 8 7 7 6 6 5 9 7 7 8 8 10 9 11 10 10 6 9 7 7 4 2
10 10 9 7 7 7 8 8 7 5 6 7 6 7 7 7 11 10 8 7 8 11 10 8 7 8 11 9 6 6 6 7 8 14 16 14 10 11 10 5 4 3 3
7 8 8 8 7 8 8 8 6 4 7 5 7 7 9 8 9 12 8 5 9 8 7 9 14 11 12 14 9 6 7 7 5 3 6 7 7 8 11 9 6 5 3
7 8 8 6 7 7 7 5 6 7 8 8 9 9 9 9 9 13 13 6 7 6 7 8 5 15 15 14 14 8 8 4 4 5 6 6 4 7 6 8 7 6 4
12 12 12 10 9 8 8 8 7 7 8 10 10 9 8 9 12 12 15 15 11 9 9 8 7 14 16 17 13 15 14 8 5 6 7 8 8 6 7 8 9 8 5
13 13 12 11 10 10 9 9 8 7 8 9 8 9 9 7 7 13 16 15 13 9 9 12 12 12 15 12 15 13 12 6 7 9 9 9 9 8 6 5 6 6 5
14 13 11 10 11 11 8 8 8 8 8 9 9 9 9 7 7 7 5 5 10 7 11 9 10 8 9 10 6 7 7 7 9 10 9 8 6 5 7 6 5 5 4
14 13 12 12 11 10 10 9 8 9 9 9 9 9 8 8 9 10 9 5 5 8 4 3 2 3 5 7 7 7 7 7 9 9 7 7 6 7 7 6 5 4 6
13 11 10 11 10 10 9 9 11 15 15 15 17 11 8 13 11 10 12 13 12 7 2 3 3 5 6 6 7 7 8 9 9 8 8 7 8 8 8 5 6 7 9
12 12 10 10 9 10 9 8 8 7 13 15 17 16 15 16 12 13 13 7 3 10 5 6 7 7 7 7 7 7 8 8 7 7 9 9 9 9 8 7 7 8 9
14 19 10 9 8 9 9 10 6 7 7 7 9 11 12 15 15 15 2 5 3 5 5 7 8 8 7 7 7 7 8 6 7 7 8 9 10 10 8 6 7 8 7
13 10 10 8 7 9 9 10 7 6 7 7 6 5 7 3 6 4 10 4 5 5 6 7 8 7 8 8 8 7 6 7 6 6 8 8 9 10 9 11 10 12 10
13 21 12 6 6 8 8 8 6 6 6 7 6 7 3 3 3 4 5 4 5 6 5 6 7 7 9 8 7 8 7 6 6 6 8 9 9 9 10 10 8 8 9
10 10 20 9 9 9 9 9 8 6 5 6 6 6 8 5 6 5 5 5 7 7 8 8 8 8 8 7 7 7 8 7 7 8 8 8 8 8 8 7 7 7 6
9 9 9 9 8 9 10 9 9 9 9 10 9 7 10 3 5 6 6 6 7 8 8 8 8 8 8 8 8 8 8 8 7 8 8 7 6 7 6 6 6 7 7
10 11 10 9 9 12 10 10 10 10 10 10 10 10 9 7 5 4 5 6 6 7 6 7 8 7 8 9 9 9 9 9 9 9 8 8 8 8 8 8 8 8 7
10 10 10 10 9 9 10 10 9 11 10 10 10 9 9 9 9 9 8 8 8 8 7 7 6 9 8 8 8 8 8 9 8 9 13 9 9 9 9 9 8 10 9
9 10 10 10 10 10 10 10 10 10 11 10 10 9 9 9 9 9 9 8 8 8 10 9 7 10 9 9 11 13 13 14 11 11 7 11 11 13 11 9 9 8 10
8 8 8 8 9 9 10 10 10 11 10 10 10 10 9 10 10 9 9 9 9 9 11 8 10 15 16 12 11 10 11 13 11 14 10 9 9 9 9 11 13 8 10
Wind_Direction
218 257 273 283 273 254 231 221 234 205 167 170 191 198 201 200 204 190 213 228 230 220 219 229 228 221 226 221 202 185 191 178 214 273 229 263 285 249 256 238 222 212 202
226 259 276 273 276 271 271 257 248 212 177 196 204 205 218 207 199 210 219 215 218 234 242 235 234 217 224 223 211 207 199 190 192 235 219 236 226 244 238 248 237 227 221
189 189 217 321 346 355 276 289 241 221 173 196 211 217 208 234 233 230 236 230 214 218 230 234 234 219 222 216 216 212 204 194 191 204 243 212 229 229 247 254 259 256 251
194 150 143 128 13 43 60 88 27 299 285 175 205 222 236 243 237 231 219 199 201 209 224 230 234 227 227 213 212 212 200 198 193 207 218 224 216 220 187 220 251 218 238
191 185 178 138 115 85 67 44 45 38 19 11 187 216 237 242 241 216 195 199 230 248 252 250 249 240 234 218 208 204 191 195 192 205 202 178 195 189 195 192 219 190 237
235 215 245 227 219 197 186 179 149 153 166 242 261 239 259 252 237 214 199 211 231 241 255 247 246 247 236 216 213 204 186 194 202 197 201 207 210 200 177 189 208 151 241
219 239 220 229 249 245 226 218 230 224 207 224 239 226 241 250 234 216 217 214 223 232 237 245 250 250 224 227 218 209 209 213 209 193 212 214 204 202 183 179 197 170 195
264 245 238 231 225 242 226 224 225 213 217 228 233 238 238 237 236 222 220 213 231 239 233 233 241 269 265 220 207 211 222 199 212 217 222 227 223 203 197 182 191 167 127
307 305 301 295 269 247 229 229 227 211 218 222 225 240 234 235 226 235 215 216 230 240 244 234 219 235 234 234 229 244 247 218 204 206 227 225 218 195 176 141 187 134 200
285 286 291 289 272 266 259 259 256 221 228 227 234 230 237 246 228 234 225 220 237 245 241 243 219 224 217 205 222 230 239 247 180 170 225 250 222 234 196 194 165 174 161
302 312 300 288 280 262 253 245 248 244 241 240 234 235 231 231 246 236 230 208 229 238 245 257 222 217 223 220 212 227 237 207 232 226 258 248 204 201 208 210 196 177 171
308 303 298 296 296 295 282 274 252 251 249 250 244 248 246 241 236 246 240 227 224 228 243 252 244 209 217 223 224 227 229 212 222 223 228 248 226 206 208 204 210 209 196
303 297 293 292 291 280 267 264 263 244 246 254 247 247 248 241 245 238 244 241 231 232 245 248 249 212 220 233 234 230 225 212 220 234 228 235 239 223 197 195 202 199 203
321 306 289 281 284 279 266 260 254 253 243 244 250 246 244 243 245 245 235 239 238 227 246 253 250 233 221 227 219 212 212 216 218 224 227 230 217 194 200 190 184 180 187
317 313 308 301 289 280 274 269 261 252 242 247 243 243 239 237 241 227 221 226 214 222 198 214 241 225 248 236 229 223 204 203 212 225 231 236 229 222 213 192 194 167 203
310 310 304 299 301 295 278 275 250 246 259 258 253 241 243 245 250 242 240 244 234 152 177 213 239 232 232 233 220 222 221 207 211 208 213 231 238 235 228 206 207 196 213
303 297 292 289 290 294 306 273 272 269 248 256 256 246 233 246 252 250 255 255 164 142 202 217 228 232 227 227 228 218 218 220 217 213 211 204 213 227 222 207 219 217 212
299 292 285 279 281 293 291 295 253 271 282 281 258 235 240 237 245 250 244 143 203 215 208 218 227 226 225 222 221 219 216 213 203 205 213 214 206 215 224 221 223 223 217
318 307 295 277 275 281 282 279 276 268 270 273 278 245 246 261 256 247 165 213 220 209 209 217 226 223 230 230 228 221 214 213 204 198 213 215 219 209 208 215 215 211 197
328 326 326 318 292 289 285 283 297 285 270 264 267 267 232 141 234 228 209 214 227 239 220 223 232 236 238 229 219 215 217 208 216 215 220 219 216 210 215 211 211 214 208
336 337 0 9 7 358 355 351 346 330 298 290 271 272 246 217 251 240 230 215 227 239 236 225 232 228 227 234 228 222 221 217 216 219 217 220 217 212 207 208 204 206 189
345 351 352 358 360 1 355 354 355 351 345 340 331 309 289 245 262 262 250 241 234 231 234 231 231 227 227 221 223 226 225 222 220 222 221 219 211 214 209 201 198 199 201
353 355 358 4 8 5 5 0 355 351 346 348 346 348 1 356 330 305 290 291 285 273 256 239 239 233 229 227 221 216 217 219 219 215 214 215 214 214 209 209 207 207 206
355 358 357 0 5 7 9 4 359 354 351 356 353 350 355 356 354 350 351 339 332 332 329 309 272 253 247 232 232 230 224 228 223 218 211 210 214 212 218 221 209 205 206
354 0 2 2 2 360 358 3 6 3 4 3 357 352 354 356 352 344 344 336 331 327 328 324 318 324 318 290 256 239 230 227 221 215 210 215 216 214 215 217 209 203 201
347 354 358 360 3 2 360 2 2 5 3 5 356 349 354 3 338 337 341 337 334 330 327 319 315 314 311 305 300 316 276 248 229 229 223 215 215 218 215 217 217 204 201